Temp
11 11 10 10 10 10 10 10 10 10 10 10 10 9 9 10 10 13 16 19 20 20 20 22 22 24 26 27 29 30 27 28 29 31 25 21 21 25 26 29 28 26 22 23 22
11 11 10 10 10 10 10 9 10 10 10 10 10 9 10 9 11 16 22 21 21 21 20 23 25 26 26 27 28 28 27 28 27 27 25 22 18 22 29 25 26 25 17 19 22
11 11 10 10 10 9 9 9 9 10 10 9 9 10 10 10 17 26 25 23 21 21 21 25 27 27 26 28 29 28 27 30 23 21 23 25 22 28 28 23 19 18 22 25 23
11 11 11 10 9 9 9 9 9 9 9 9 9 10 11 11 23 25 24 22 21 21 22 25 28 27 27 27 29 28 29 30 24 23 23 28 28 24 23 20 17 18 25 25 24
11 11 11 10 9 9 9 9 8 9 9 9 9 11 11 19 23 25 25 23 22 22 24 27 28 28 27 29 29 28 29 30 30 29 29 28 28 24 23 23 23 21 28 26 25
11 11 11 10 9 9 9 9 8 9 9 9 9 11 12 21 27 25 24 23 23 23 26 28 28 29 28 29 29 29 29 29 30 30 29 26 26 28 26 26 27 27 28 27 26
11 11 11 11 9 9 8 8 8 9 9 9 9 10 17 22 27 26 24 24 25 24 27 28 28 28 29 28 30 30 28 28 29 30 29 24 27 28 28 28 27 27 27 27 27
12 11 11 11 10 10 9 8 8 8 8 9 11 12 19 25 25 26 26 26 25 26 27 28 27 28 27 28 29 28 29 26 28 29 30 30 27 28 28 28 28 28 27 27 27
12 12 11 10 10 9 9 9 8 9 8 9 12 15 22 25 26 27 27 27 28 27 27 27 26 26 27 25 27 28 26 25 26 29 30 30 27 29 29 29 28 27 27 27 27
12 11 11 10 9 10 9 9 9 10 10 12 15 18 22 27 29 29 28 27 28 27 26 26 26 26 26 27 25 26 26 27 27 29 30 29 28 28 29 21 16 28 28 27 27
12 11 11 10 9 9 9 11 14 14 15 22 25 24 28 29 28 28 29 28 28 27 25 27 25 25 27 27 27 28 28 28 29 30 29 29 28 28 29 28 28 27 28 27 27
12 11 11 9 8 9 9 16 22 21 21 22 24 26 26 27 27 29 29 28 28 26 28 26 25 27 27 27 28 28 28 28 29 30 29 29 28 29 29 29 29 29 27 27 27
12 11 11 9 9 9 12 16 19 19 22 26 26 26 27 28 27 29 30 29 28 27 27 23 24 28 28 27 27 28 28 27 28 29 29 26 27 28 29 30 30 29 29 28 27
12 11 10 9 10 14 15 17 19 17 21 25 26 27 28 28 27 30 30 29 28 26 27 22 25 27 27 28 28 25 27 28 27 25 26 26 24 21 25 28 29 29 28 28 28
11 11 11 12 14 17 19 20 20 19 20 27 27 29 29 27 29 28 29 29 27 28 26 26 27 27 27 27 28 26 26 27 29 28 27 25 24 23 22 25 27 28 28 28 27
11 11 10 8 9 14 16 17 19 19 20 26 28 27 27 27 28 29 28 29 29 27 28 25 27 28 27 28 29 28 26 27 28 28 23 24 23 22 22 24 25 27 27 27 26
11 10 10 11 17 17 16 17 19 20 26 26 26 27 27 26 27 27 27 26 26 25 25 25 27 28 29 28 28 28 27 25 23 22 23 28 25 24 23 24 19 18 26 26 25
11 10 9 11 14 15 16 16 19 23 25 28 27 27 26 27 27 27 27 26 27 27 26 25 25 28 28 28 25 27 27 24 18 17 22 27 25 28 28 25 21 24 26 26 25
10 8 9 9 12 13 15 16 21 25 26 27 27 26 26 28 27 27 27 27 28 28 25 21 23 27 28 29 28 27 26 28 25 21 24 26 28 30 29 29 29 27 26 25 24
10 9 11 11 12 13 15 18 22 26 28 28 26 27 26 27 26 26 26 28 28 29 28 19 18 23 27 27 28 26 28 25 25 22 22 25 26 27 27 27 27 27 26 25 24
12 14 17 12 11 15 16 20 23 27 28 27 26 26 27 27 27 26 27 28 28 28 28 27 22 26 26 26 26 26 25 26 26 25 22 22 25 27 27 27 27 27 26 25 24
14 14 15 12 15 18 18 22 23 26 27 26 27 27 27 28 27 27 25 27 28 28 26 27 26 23 25 28 28 27 26 26 22 23 23 21 23 28 27 27 27 27 27 26 25
15 16 14 16 17 17 20 22 24 25 26 26 26 27 28 27 26 27 27 25 25 27 26 27 25 22 24 26 27 26 27 27 27 23 22 20 23 27 27 26 27 27 27 26 25
16 14 13 14 20 20 20 22 23 26 26 27 26 27 27 26 27 26 26 24 24 25 18 23 25 24 22 25 26 25 26 27 26 20 21 21 25 27 27 26 26 26 26 26 25
15 18 18 14 18 20 22 23 23 24 26 27 26 26 26 25 26 25 27 23 23 17 23 24 23 24 26 26 26 25 26 26 26 25 23 24 26 27 28 27 27 27 26 25 25
15 19 20 19 19 20 20 22 24 25 25 25 25 26 26 25 26 25 26 24 24 23 24 24 22 22 22 24 25 24 25 26 26 26 26 26 26 28 27 26 26 25 26 25 24
15 17 20 18 20 20 21 23 24 26 26 27 26 26 26 26 26 25 25 25 26 24 23 23 20 19 20 21 20 18 21 24 25 26 26 24 26 27 26 26 25 25 25 24 23
Height
825 824 822 820 818 816 814 812 811 809 806 804 800 797 794 791 787 786 780 770 771 771 773 773 774 772 769 765 761 756 772 769 751 741 759 761 776 760 755 755 757 766 777 779 779
823 822 820 818 816 814 811 810 808 805 804 803 798 794 793 790 787 777 762 764 767 770 772 770 769 769 768 763 757 762 770 759 753 752 759 767 788 771 755 770 771 771 786 787 782
821 820 818 817 815 812 810 809 807 804 802 801 797 791 792 790 782 758 759 761 764 767 769 766 764 763 767 757 754 757 768 746 770 769 759 763 777 755 761 781 790 790 779 780 790
819 817 815 815 812 811 808 806 805 802 801 800 796 790 790 790 779 759 758 760 763 765 769 765 760 764 766 760 748 763 751 746 763 762 761 748 751 776 772 781 782 784 778 784 793
818 816 814 812 810 809 805 804 803 800 800 798 795 790 791 784 768 760 759 761 764 767 767 760 760 760 763 752 748 758 749 741 745 747 745 747 756 766 771 765 775 780 772 783 789
815 815 812 810 808 807 804 802 801 799 800 797 793 791 795 782 758 759 760 762 765 768 765 759 756 750 753 747 750 748 747 747 744 743 747 760 760 755 763 763 768 772 773 781 783
813 812 811 808 806 804 802 800 800 797 797 797 793 793 792 771 758 760 763 763 763 765 760 759 755 755 749 751 740 745 757 754 748 747 748 767 769 764 758 762 769 771 774 779 782
810 810 809 807 805 801 800 798 798 796 795 794 791 793 783 760 760 759 759 760 762 761 761 758 758 756 757 751 749 756 753 777 758 749 744 749 776 763 758 766 769 770 775 779 785
808 808 808 806 803 800 799 797 796 794 794 793 790 791 774 757 757 754 755 755 754 757 758 759 762 762 761 770 766 757 773 780 773 750 748 753 769 760 755 762 771 773 777 780 786
805 806 806 804 802 799 798 797 795 794 792 794 790 792 767 753 748 750 751 754 754 756 761 763 765 768 765 766 786 776 776 769 768 752 748 753 762 760 757 779 795 769 773 779 785
802 803 803 802 801 799 799 799 796 794 791 769 760 761 748 747 748 749 748 751 751 757 769 759 772 776 763 760 759 759 762 763 751 745 753 756 763 761 757 761 764 770 769 776 783
799 800 800 801 799 800 800 797 778 783 776 762 760 756 754 752 752 745 745 751 753 763 755 765 776 760 760 758 759 757 758 756 749 748 753 754 760 756 754 756 757 761 768 773 780
795 796 798 798 798 799 795 790 781 784 773 748 750 753 750 748 750 744 741 743 752 757 760 779 774 754 758 761 762 753 757 763 761 755 752 767 768 761 754 753 753 756 759 765 773
792 794 795 796 799 792 790 782 782 787 779 751 750 748 745 743 749 735 734 741 746 762 756 783 761 757 759 758 753 774 760 755 765 776 780 766 800 801 777 759 755 755 758 761 767
786 790 792 794 790 788 783 782 783 784 793 734 740 735 736 745 737 739 738 742 754 751 759 763 755 758 760 756 748 771 755 759 753 762 766 778 787 789 782 775 765 762 761 759 764
781 785 790 794 790 783 784 784 785 788 788 742 732 743 743 741 738 731 740 741 738 751 749 763 746 746 753 748 747 750 760 757 752 758 794 783 794 798 789 777 769 762 766 768 765
777 781 785 789 784 784 786 786 789 783 734 740 740 740 743 745 743 741 748 753 760 773 768 761 753 741 741 753 748 751 761 784 799 800 791 748 777 768 758 760 779 783 762 766 769
773 778 780 783 782 785 786 788 779 751 740 719 730 736 746 737 740 741 746 755 747 750 759 767 771 748 741 747 768 759 759 784 834 840 799 758 776 749 732 744 760 758 756 763 767
768 776 778 775 779 784 784 784 761 735 727 727 729 742 743 731 736 740 742 748 740 740 765 785 782 748 741 740 747 755 763 748 774 794 788 768 752 731 733 737 739 748 756 762 767
763 771 767 770 777 784 779 765 746 722 715 719 738 733 743 736 744 741 743 731 734 728 735 791 810 767 749 748 746 756 748 773 770 800 804 775 764 754 749 746 746 746 754 760 767
757 761 747 763 774 776 764 750 739 717 714 722 730 733 729 733 736 738 736 725 727 733 734 744 776 760 756 759 757 759 765 762 763 772 795 798 774 747 749 744 745 745 749 757 765
745 750 740 752 763 753 753 738 729 718 715 722 719 720 725 721 732 735 744 734 721 728 746 739 749 769 758 740 739 746 753 756 786 789 781 793 782 742 745 744 743 744 743 749 756
733 738 744 740 742 742 742 734 723 721 719 726 725 718 714 723 735 730 728 736 733 734 744 740 756 777 767 753 746 756 750 748 752 772 786 802 783 742 745 746 744 745 744 745 752
724 731 733 738 724 728 734 730 726 713 714 716 720 714 719 725 720 732 731 741 739 738 755 748 752 761 779 762 749 758 754 748 755 787 786 784 765 747 744 747 744 747 747 745 748
711 700 701 719 719 715 720 719 720 720 713 709 719 720 724 734 729 734 728 743 744 756 750 751 765 757 750 744 749 752 749 748 754 757 777 767 758 743 737 738 737 740 744 748 748
697 686 690 699 711 714 714 713 709 710 714 718 719 716 717 727 727 733 728 737 746 749 750 750 765 762 767 753 751 759 751 747 747 746 748 748 750 732 736 740 743 745 746 749 751
693 684 679 695 702 708 703 703 702 702 703 703 711 713 717 718 716 722 722 722 726 743 751 754 768 777 779 772 774 786 766 755 749 741 744 759 745 734 739 742 746 747 747 749 752
Wind_Speed
19 19 16 17 17 18 21 22 22 20 18 18 18 19 21 23 25 16 19 18 7 14 10 8 14 15 15 15 17 16 11 14 20 20 8 13 12 7 16 4 8 7 7 3 32
19 19 17 16 18 19 20 21 20 18 16 17 17 18 22 23 21 22 21 18 21 13 13 13 13 16 11 13 14 12 11 18 17 14 10 14 13 25 5 13 5 8 18 15 28
19 18 16 16 18 19 20 20 19 17 15 15 17 17 20 18 10 1 5 14 13 17 18 15 13 13 13 15 15 15 16 9 13 13 19 19 23 10 4 7 9 16 22 18 19
17 17 17 17 17 19 19 19 18 15 13 15 15 15 18 8 5 7 6 7 12 14 14 21 14 11 14 16 13 13 16 13 8 10 12 6 19 10 14 5 28 23 12 19 16
17 18 17 16 17 18 18 18 17 13 13 13 14 12 7 7 9 3 3 12 14 10 13 14 10 11 15 14 10 13 16 1 4 12 7 19 8 16 13 12 19 20 18 20 15
17 18 18 16 16 18 17 16 15 12 13 13 13 6 5 8 4 7 6 15 13 13 10 10 9 10 12 12 11 8 12 6 6 7 16 11 4 12 15 12 14 14 15 17 16
18 18 18 17 16 16 16 14 13 11 12 13 10 4 9 13 6 6 7 11 14 16 13 11 14 9 5 11 7 2 9 2 2 4 5 14 11 11 16 16 17 17 13 12 13
18 18 18 18 17 15 14 12 11 10 12 13 4 2 8 5 10 14 11 11 10 14 16 15 9 12 11 14 5 10 10 7 6 10 5 7 13 12 19 15 15 17 13 12 13
19 18 18 18 15 14 12 11 10 12 13 5 1 3 9 2 10 15 12 11 8 11 9 6 4 9 12 10 9 10 8 6 7 17 6 9 16 15 17 17 16 15 14 14 13
19 18 18 17 14 11 11 10 9 8 6 8 7 6 12 9 12 5 6 8 5 5 3 7 6 6 8 7 4 7 6 15 14 13 9 14 16 13 13 26 23 16 15 14 12
19 18 17 15 12 9 6 6 4 4 13 10 3 8 5 6 4 10 9 9 4 7 7 7 5 5 7 7 2 8 16 16 14 10 10 13 14 16 14 19 17 12 14 13 11
19 17 15 12 9 6 4 7 7 9 9 22 19 15 17 7 8 13 13 10 9 7 7 4 7 7 11 8 15 14 13 9 10 6 10 10 13 16 13 12 12 14 17 16 15
19 17 13 9 5 8 13 17 12 19 6 11 18 16 15 15 14 13 13 14 8 6 9 3 11 9 13 16 18 14 3 7 7 8 7 8 1 13 15 11 12 13 12 15 16
19 17 13 7 5 10 8 13 19 14 5 9 14 11 16 8 15 19 5 11 7 5 9 5 17 17 15 15 14 7 13 6 8 6 10 13 6 10 16 14 13 13 13 13 15
21 18 17 14 9 12 10 2 5 6 4 14 18 16 14 15 13 10 7 9 10 4 5 4 13 14 10 6 5 7 15 9 12 11 2 13 6 6 14 13 15 12 12 12 13
23 20 15 10 14 16 7 10 4 4 6 9 12 11 14 13 14 4 13 13 10 5 3 5 12 9 6 5 2 8 8 15 10 9 2 8 10 7 12 23 4 12 9 9 12
24 22 22 11 2 4 7 6 5 7 6 9 14 15 16 14 13 10 14 16 10 9 9 7 17 4 9 7 5 8 9 7 3 5 7 13 9 8 20 14 14 20 16 13 11
24 22 21 20 12 9 7 5 12 13 19 2 14 16 17 15 13 12 14 15 16 15 10 11 14 11 9 9 6 14 10 4 6 4 10 5 4 4 16 24 29 26 15 14 13
24 16 12 18 20 6 4 10 10 12 20 9 13 13 17 16 9 11 15 17 18 18 12 4 4 11 2 6 3 5 9 8 4 16 6 4 14 15 8 10 6 17 15 15 13
20 10 20 16 21 10 7 17 18 21 6 13 15 15 16 15 10 12 14 16 19 15 14 11 7 20 6 4 5 6 9 3 3 3 5 8 9 3 4 5 2 12 14 14 13
21 5 12 28 25 7 11 17 20 23 7 6 15 16 17 13 15 12 9 9 6 8 4 7 19 7 7 8 10 7 8 8 7 4 1 4 2 7 7 5 5 6 13 13 14
18 7 29 44 10 11 14 21 22 21 9 9 13 16 15 13 14 13 6 14 9 7 7 8 3 3 8 5 4 9 9 12 3 5 2 0 6 5 4 3 2 4 9 15 15
12 9 28 23 12 12 18 25 25 23 14 15 12 15 10 11 9 11 6 4 5 3 1 2 3 4 8 8 7 8 12 9 4 3 4 3 4 4 3 1 3 4 6 9 14
10 9 5 9 12 19 23 23 23 22 16 14 15 12 8 10 8 9 7 3 3 3 4 4 5 8 7 11 7 13 12 12 11 3 3 7 14 8 11 9 7 5 6 6 10
6 11 10 11 17 18 21 19 24 16 14 16 17 18 12 9 10 9 8 7 3 3 1 2 7 11 14 15 2 12 7 11 13 10 10 10 14 11 9 5 3 3 7 6 9
8 10 11 12 19 21 21 26 25 21 16 13 14 13 14 10 10 11 12 8 7 8 8 4 2 4 3 10 14 12 14 13 14 12 13 14 13 9 9 8 7 6 5 3 7
20 11 7 14 21 19 19 23 24 19 17 15 18 15 15 8 11 10 10 4 5 10 9 7 3 2 2 5 7 5 8 15 15 14 10 10 9 7 2 1 6 5 6 3 6
Wind_Direction
306 310 305 311 317 318 318 318 316 316 313 313 316 316 315 313 311 298 263 241 246 269 253 248 217 230 243 247 242 238 260 264 262 273 70 43 29 293 192 167 82 96 70 342 116
298 304 304 308 313 315 320 318 314 314 314 311 312 316 316 314 307 281 260 246 245 242 226 236 203 218 229 241 240 240 235 255 36 34 92 121 178 243 89 18 91 109 125 231 114
292 301 307 306 311 315 318 316 315 315 313 310 308 318 313 324 287 317 1 228 217 221 224 226 215 211 233 240 230 225 252 273 47 53 340 286 178 182 127 95 44 324 151 124 135
288 298 302 301 311 314 316 315 313 315 312 307 308 318 319 308 294 16 16 176 207 217 225 262 232 222 248 249 234 241 240 259 143 163 224 210 99 93 98 149 131 228 175 133 137
286 298 300 300 309 312 314 313 310 316 306 303 305 329 341 241 256 15 70 157 168 175 227 237 228 226 243 249 225 235 261 247 217 211 187 62 83 133 146 180 168 225 148 130 155
285 292 297 299 306 308 312 310 308 310 301 297 300 348 270 261 115 89 142 164 180 198 222 248 243 265 296 269 217 219 263 31 241 208 101 86 226 146 162 181 137 139 135 137 153
284 288 294 298 302 306 307 306 302 301 289 290 306 351 267 252 341 122 172 182 204 205 228 239 276 285 285 288 256 265 270 102 84 152 157 203 171 98 110 125 146 136 137 141 139
278 284 290 296 301 303 303 300 295 291 282 281 309 344 260 260 255 266 203 218 227 229 246 280 322 300 295 311 287 246 220 170 286 272 163 197 119 143 129 151 150 140 136 145 144
274 281 287 294 299 304 298 297 291 288 283 270 335 187 264 225 230 242 226 238 232 227 237 264 303 254 267 247 239 226 168 157 183 249 172 235 135 153 158 159 152 145 158 153 160
269 274 281 289 295 295 292 291 290 298 274 245 265 295 257 221 214 180 173 191 198 156 205 221 222 219 240 232 234 96 277 175 209 210 195 216 141 167 184 111 267 152 157 148 164
264 268 276 284 289 284 307 291 224 203 234 230 197 237 182 225 177 230 187 190 174 188 229 191 214 227 203 249 213 239 226 214 194 171 229 138 151 175 198 167 169 165 149 150 164
256 260 268 283 280 273 251 255 341 1 290 223 244 266 273 281 275 219 186 224 184 243 230 177 258 162 232 281 249 259 259 187 131 171 223 200 175 178 197 196 173 176 167 166 176
248 249 254 265 249 235 227 238 276 341 262 238 214 236 242 223 240 217 192 228 248 215 217 65 285 229 247 219 244 257 248 216 158 196 218 352 265 178 186 203 202 194 188 175 176
241 241 234 224 214 232 233 259 255 268 275 182 195 229 235 222 235 226 222 239 208 195 259 123 247 234 233 238 236 358 344 199 170 314 211 179 185 47 308 211 200 199 199 189 171
230 231 235 223 322 217 32 195 166 199 259 169 189 211 199 206 218 211 213 266 258 193 182 224 209 230 217 316 13 168 273 263 251 228 271 326 325 203 239 259 213 223 210 185 160
224 222 224 231 255 244 328 311 198 232 241 157 147 178 211 205 225 218 184 228 273 225 280 232 284 274 88 192 275 175 238 259 275 266 182 216 201 241 211 241 293 193 206 208 176
218 215 213 198 263 272 251 266 210 219 246 179 181 195 207 198 212 206 196 201 210 220 224 173 242 113 176 174 192 210 227 243 325 306 280 256 169 223 209 208 141 216 192 188 172
211 209 223 221 244 287 244 230 227 203 234 193 188 196 206 190 211 201 197 200 206 223 237 227 198 183 212 231 116 258 254 244 164 293 297 11 227 333 150 194 179 206 169 170 175
190 192 225 234 211 257 246 210 214 227 209 208 189 198 213 201 202 191 209 213 204 218 213 31 286 318 36 252 286 293 247 285 332 196 252 288 287 286 85 103 136 156 167 169 176
167 185 230 207 194 214 227 225 223 239 261 182 209 198 205 199 191 197 197 219 221 208 186 164 346 268 196 250 258 268 332 281 282 315 285 291 300 303 135 123 216 164 167 173 178
178 210 219 174 161 209 223 218 235 240 237 219 210 208 224 180 198 197 210 171 181 191 235 232 207 155 145 212 247 185 238 245 288 260 295 313 308 35 34 34 152 225 170 175 179
186 207 147 148 175 204 223 218 230 239 204 250 258 221 224 201 192 225 149 264 167 219 211 250 310 258 230 267 296 314 288 209 172 269 162 93 278 34 80 52 39 227 198 178 182
184 180 165 176 194 200 215 226 230 237 191 222 238 247 204 244 186 223 226 74 77 181 266 270 232 266 291 190 213 247 253 266 244 74 213 170 264 163 151 283 317 262 253 188 184
176 184 158 209 226 198 200 216 223 238 233 210 228 231 196 224 209 204 201 109 115 95 46 337 243 247 238 250 328 200 239 240 233 145 235 258 272 240 202 210 195 201 296 251 191
204 205 174 184 200 199 200 217 213 204 218 219 213 215 195 207 198 217 199 119 125 109 165 233 242 263 269 262 258 298 266 232 235 228 234 250 259 280 355 354 77 64 182 256 283
200 203 160 171 190 201 208 215 216 195 193 211 233 209 201 197 226 194 219 155 177 170 201 198 234 315 306 292 289 270 277 270 276 265 253 266 265 296 52 24 20 345 312 277 284
221 274 195 164 188 200 212 206 217 195 202 210 215 198 217 131 76 60 55 145 204 162 198 162 135 132 242 24 348 325 244 254 266 267 259 258 273 309 306 11 20 341 320 254 285